Tracking 29892 objects as of 21-Nov-2024
HD Live streaming from Space Station
objects crossing your sky now

DELTA 1 DEB

Track DELTA 1 DEB now!
10-day predictions


NORAD ID: 13538
Int'l Code: 1976-077EL
Perigee: 1,504.9 km
Apogee: 1,676.8 km
Inclination: 102.0 °
Period: 117.8 minutes
Semi major axis: 7961 km
RCS: 0.04 m2 (small)
Launch date: July 29, 1976
Source: United States (US)
Launch site: AIR FORCE WESTERN TEST RANGE (AFWTR)

Note: This is SATELLITE DEBRIS
Your satellite tracking list
Your tracking list is empty




NASA's NSSDC Master Catalog

Two Line Element Set (TLE):
1 13538U 76077EL  24324.96363885  .00000085  00000-0  11716-2 0  9991
2 13538 101.9932 327.5704 0107959  44.8078  13.9088 12.22027144976070
Source of the keplerian elements: AFSPC